| time (UTC) | temp F | wind direction | speed MPH | gust MPH | rain 1hr in | rain 24hr in | rain mn in | humidity % | barometer mb |
| 20260507114711 | 45 | 356 | 2.0 | 4.0 | 0.00 | 0.00 | 0.00 | 69 | 1016.6 |
| 20260507114209 | 45 | 311 | 2.0 | 2.0 | 0.00 | 0.00 | 0.00 | 70 | 1016.7 |
| 20260507113706 | 44 | 11 | 3.0 | 3.0 | 0.00 | 0.00 | 0.00 | 70 | 1016.7 |
| 20260507113202 | 44 | 14 | 4.0 | 4.0 | 0.00 | 0.00 | 0.00 | 70 | 1016.6 |
| 20260507112700 | 44 | 350 | 2.0 | 3.0 | 0.00 | 0.00 | 0.00 | 72 | 1016.5 |
| 20260507112157 | 44 | 354 | 4.0 | 4.0 | 0.00 | 0.00 | 0.00 | 71 | 1016.6 |
| 20260507111654 | 44 | 12 | 0.0 | 3.0 | 0.00 | 0.00 | 0.00 | 73 | 1016.5 |
| 20260507111151 | 44 | 355 | 3.0 | 4.0 | 0.00 | 0.00 | 0.00 | 74 | 1016.3 |
| 20260507110647 | 44 | 0 | 3.0 | 5.0 | 0.00 | 0.00 | 0.00 | 74 | 1016.4 |
| 20260507110144 | 43 | 14 | 5.0 | 6.0 | 0.00 | 0.00 | 0.00 | 75 | 1016.1 |
| 20260507105641 | 43 | 13 | 5.0 | 5.0 | 0.00 | 0.00 | 0.00 | 77 | 1016.1 |
| 20260507105136 | 43 | 358 | 3.0 | 5.0 | 0.00 | 0.00 | 0.00 | 76 | 1016.1 |
| 20260507104634 | 43 | 356 | 5.0 | 5.0 | 0.00 | 0.00 | 0.00 | 76 | 1016.0 |
| 20260507104131 | 43 | 357 | 3.0 | 5.0 | 0.00 | 0.00 | 0.00 | 77 | 1015.9 |
| 20260507103627 | 43 | 8 | 3.0 | 4.0 | 0.00 | 0.00 | 0.00 | 77 | 1016.0 |
| 20260507103124 | 44 | 356 | 4.0 | 5.0 | 0.00 | 0.00 | 0.00 | 77 | 1015.9 |
| 20260507102620 | 44 | 359 | 4.0 | 4.0 | 0.00 | 0.00 | 0.00 | 77 | 1016.0 |
| 20260507102116 | 44 | 345 | 2.0 | 4.0 | 0.00 | 0.00 | 0.00 | 77 | 1016.0 |
| 20260507101612 | 44 | 349 | 3.0 | 5.0 | 0.00 | 0.00 | 0.00 | 77 | 1015.9 |
| 20260507101108 | 44 | 0 | 4.0 | 4.0 | 0.00 | 0.00 | 0.00 | 77 | 1015.9 |
| 20260507100606 | 44 | 325 | 2.0 | 5.0 | 0.00 | 0.00 | 0.00 | 77 | 1016.0 |
| 20260507100104 | 44 | 352 | 3.0 | 4.0 | 0.00 | 0.00 | 0.00 | 77 | 1015.9 |
| 20260507095601 | 44 | 6 | 4.0 | 5.0 | 0.00 | 0.00 | 0.00 | 77 | 1016.0 |
| 20260507095058 | 44 | 345 | 5.0 | 6.0 | 0.00 | 0.00 | 0.00 | 77 | 1016.0 |
| 20260507094554 | 44 | 350 | 3.0 | 5.0 | 0.00 | 0.00 | 0.00 | 77 | 1016.0 |
| 20260507094051 | 44 | 19 | 6.0 | 6.0 | 0.00 | 0.00 | 0.00 | 77 | 1016.2 |
| 20260507093549 | 44 | 354 | 4.0 | 5.0 | 0.00 | 0.00 | 0.00 | 80 | 1016.1 |
| 20260507093047 | 44 | 325 | 2.0 | 5.0 | 0.00 | 0.00 | 0.00 | 80 | 1016.0 |
| 20260507092543 | 44 | 336 | 3.0 | 5.0 | 0.00 | 0.00 | 0.00 | 82 | 1015.8 |
| 20260507092040 | 44 | 349 | 4.0 | 5.0 | 0.00 | 0.00 | 0.00 | 84 | 1015.8 |
| 20260507091537 | 44 | 355 | 3.0 | 4.0 | 0.00 | 0.00 | 0.00 | 84 | 1015.7 |
| 20260507091033 | 44 | 14 | 3.0 | 4.0 | 0.00 | 0.00 | 0.00 | 82 | 1015.7 |
| 20260507090529 | 44 | 345 | 4.0 | 5.0 | 0.00 | 0.00 | 0.00 | 82 | 1015.7 |
| 20260507090026 | 44 | 332 | 2.0 | 3.0 | 0.00 | 0.00 | 0.00 | 83 | 1015.8 |
| 20260507085523 | 44 | 347 | 2.0 | 4.0 | 0.00 | 0.00 | 0.00 | 84 | 1015.6 |
| 20260507085020 | 44 | 351 | 4.0 | 4.0 | 0.00 | 0.00 | 0.00 | 83 | 1015.6 |
| 20260507084516 | 44 | 344 | 3.0 | 4.0 | 0.00 | 0.00 | 0.00 | 83 | 1015.5 |
| 20260507084013 | 45 | 355 | 2.0 | 3.0 | 0.00 | 0.00 | 0.00 | 83 | 1015.5 |
| 20260507083509 | 44 | 6 | 3.0 | 4.0 | 0.00 | 0.00 | 0.00 | 84 | 1015.5 |
| 20260507083007 | 45 | 325 | 2.0 | 3.0 | 0.00 | 0.00 | 0.00 | 84 | 1015.7 |
| 20260507082502 | 45 | 339 | 2.0 | 3.0 | 0.00 | 0.00 | 0.00 | 84 | 1015.4 |
| 20260507081959 | 44 | 36 | 3.0 | 4.0 | 0.00 | 0.00 | 0.00 | 85 | 1015.5 |
| 20260507081455 | 44 | 343 | 3.0 | 3.0 | 0.00 | 0.00 | 0.00 | 85 | 1015.4 |
| 20260507080952 | 44 | 3 | 3.0 | 5.0 | 0.00 | 0.00 | 0.00 | 85 | 1015.3 |
| 20260507080448 | 44 | 354 | 3.0 | 5.0 | 0.00 | 0.00 | 0.00 | 85 | 1015.5 |
| 20260507075943 | 44 | 357 | 4.0 | 4.0 | 0.00 | 0.00 | 0.00 | 85 | 1015.5 |
| 20260507075440 | 45 | 2 | 4.0 | 5.0 | 0.00 | 0.00 | 0.00 | 85 | 1015.5 |
| 20260507074936 | 45 | 0 | 3.0 | 5.0 | 0.00 | 0.00 | 0.00 | 85 | 1015.4 |
| 20260507074433 | 45 | 352 | 3.0 | 4.0 | 0.00 | 0.00 | 0.00 | 85 | 1015.4 |
| 20260507073932 | 45 | 349 | 3.0 | 4.0 | 0.00 | 0.00 | 0.00 | 85 | 1015.5 |
| 20260507073427 | 45 | 9 | 4.0 | 4.0 | 0.00 | 0.00 | 0.00 | 85 | 1015.4 |
| 20260507072924 | 45 | 355 | 3.0 | 4.0 | 0.00 | 0.00 | 0.00 | 85 | 1015.5 |
| 20260507072422 | 45 | 0 | 4.0 | 4.0 | 0.00 | 0.00 | 0.00 | 85 | 1015.2 |
| 20260507071920 | 45 | 9 | 4.0 | 4.0 | 0.00 | 0.00 | 0.00 | 84 | 1015.4 |
| 20260507071416 | 46 | 1 | 3.0 | 4.0 | 0.00 | 0.00 | 0.00 | 84 | 1015.4 |
| 20260507070913 | 46 | 17 | 4.0 | 4.0 | 0.00 | 0.00 | 0.00 | 84 | 1015.2 |
| 20260507070410 | 46 | 345 | 2.0 | 4.0 | 0.00 | 0.00 | 0.00 | 84 | 1015.3 |
| 20260507065907 | 46 | 10 | 4.0 | 4.0 | 0.00 | 0.00 | 0.00 | 84 | 1015.5 |
| 20260507065404 | 46 | 9 | 4.0 | 5.0 | 0.00 | 0.00 | 0.00 | 84 | 1015.4 |
| 20260507064900 | 46 | 10 | 3.0 | 4.0 | 0.00 | 0.00 | 0.00 | 83 | 1015.5 |
| 20260507064359 | 46 | 356 | 2.0 | 4.0 | 0.00 | 0.00 | 0.00 | 83 | 1015.5 |
| 20260507063856 | 46 | 355 | 3.0 | 4.0 | 0.00 | 0.00 | 0.00 | 83 | 1015.6 |
| 20260507063353 | 46 | 351 | 2.0 | 4.0 | 0.00 | 0.00 | 0.00 | 83 | 1015.6 |
| 20260507062850 | 46 | 344 | 4.0 | 4.0 | 0.00 | 0.00 | 0.00 | 83 | 1015.7 |
| 20260507062347 | 46 | 356 | 3.0 | 4.0 | 0.00 | 0.00 | 0.00 | 83 | 1015.7 |
| 20260507061845 | 46 | 7 | 3.0 | 5.0 | 0.00 | 0.00 | 0.00 | 82 | 1015.6 |
| 20260507061342 | 47 | 347 | 3.0 | 4.0 | 0.00 | 0.00 | 0.00 | 82 | 1015.7 |
| 20260507060841 | 47 | 0 | 4.0 | 5.0 | 0.00 | 0.00 | 0.00 | 82 | 1015.6 |
| 20260507060337 | 47 | 351 | 4.0 | 5.0 | 0.00 | 0.00 | 0.00 | 82 | 1015.6 |
| 20260507055834 | 47 | 9 | 3.0 | 5.0 | 0.00 | 0.00 | 0.00 | 83 | 1015.5 |
| 20260507055329 | 47 | 4 | 4.0 | 5.0 | 0.00 | 0.00 | 0.00 | 82 | 1015.7 |
| 20260507054826 | 47 | 355 | 4.0 | 5.0 | 0.00 | 0.00 | 0.00 | 82 | 1015.7 |
| 20260507054322 | 47 | 354 | 3.0 | 5.0 | 0.00 | 0.00 | 0.00 | 83 | 1015.6 |
| 20260507053820 | 47 | 7 | 4.0 | 6.0 | 0.00 | 0.00 | 0.00 | 82 | 1015.7 |
| 20260507053317 | 47 | 18 | 5.0 | 5.0 | 0.00 | 0.00 | 0.00 | 82 | 1015.8 |
| 20260507052816 | 47 | 7 | 4.0 | 5.0 | 0.00 | 0.00 | 0.00 | 81 | 1015.8 |
| 20260507052312 | 48 | 351 | 3.0 | 5.0 | 0.00 | 0.00 | 0.00 | 81 | 1015.6 |
| 20260507051810 | 48 | 8 | 3.0 | 4.0 | 0.00 | 0.00 | 0.00 | 80 | 1015.5 |
| 20260507051307 | 48 | 8 | 5.0 | 5.0 | 0.00 | 0.00 | 0.00 | 80 | 1015.7 |
| 20260507050804 | 48 | 8 | 3.0 | 6.0 | 0.00 | 0.00 | 0.00 | 80 | 1015.7 |
| 20260507050300 | 48 | 5 | 4.0 | 5.0 | 0.00 | 0.00 | 0.00 | 80 | 1015.8 |
| 20260507045757 | 48 | 6 | 4.0 | 5.0 | 0.00 | 0.00 | 0.00 | 79 | 1015.9 |
| 20260507045253 | 48 | 27 | 6.0 | 6.0 | 0.00 | 0.00 | 0.00 | 79 | 1015.7 |
| 20260507044751 | 48 | 6 | 4.0 | 6.0 | 0.00 | 0.00 | 0.00 | 80 | 1015.8 |
| 20260507044247 | 48 | 0 | 4.0 | 6.0 | 0.00 | 0.00 | 0.00 | 79 | 1015.7 |
| 20260507043743 | 48 | 1 | 4.0 | 6.0 | 0.00 | 0.00 | 0.00 | 80 | 1016.0 |
| 20260507043240 | 48 | 17 | 6.0 | 6.0 | 0.00 | 0.00 | 0.00 | 79 | 1015.9 |
| 20260507042736 | 48 | 19 | 4.0 | 6.0 | 0.00 | 0.00 | 0.00 | 79 | 1015.8 |
| 20260507042232 | 48 | 14 | 6.0 | 6.0 | 0.00 | 0.00 | 0.00 | 79 | 1015.7 |
| 20260507041730 | 48 | 22 | 6.0 | 6.0 | 0.00 | 0.00 | 0.00 | 78 | 1015.7 |
| 20260507041226 | 48 | 1 | 3.0 | 6.0 | 0.00 | 0.00 | 0.00 | 78 | 1015.9 |
| 20260507040723 | 48 | 8 | 6.0 | 6.0 | 0.00 | 0.00 | 0.00 | 77 | 1015.7 |
| 20260507040219 | 49 | 18 | 5.0 | 5.0 | 0.00 | 0.00 | 0.00 | 76 | 1015.7 |
| 20260507035715 | 49 | 359 | 4.0 | 6.0 | 0.00 | 0.30 | 0.30 | 76 | 1015.6 |
| 20260507035211 | 49 | 354 | 3.0 | 5.0 | 0.00 | 0.30 | 0.30 | 75 | 1015.6 |
| 20260507034708 | 49 | 9 | 4.0 | 6.0 | 0.00 | 0.30 | 0.30 | 75 | 1015.6 |
| 20260507034205 | 49 | 6 | 2.0 | 5.0 | 0.00 | 0.30 | 0.30 | 74 | 1015.7 |
| 20260507033704 | 50 | 4 | 4.0 | 5.0 | 0.00 | 0.30 | 0.30 | 73 | 1015.8 |
| 20260507033200 | 50 | 315 | 2.0 | 4.0 | 0.00 | 0.30 | 0.30 | 73 | 1015.8 |
| 20260507032658 | 50 | 349 | 2.0 | 5.0 | 0.00 | 0.30 | 0.30 | 73 | 1015.8 |
| 20260507032153 | 50 | 349 | 2.0 | 5.0 | 0.00 | 0.30 | 0.30 | 73 | 1015.7 |
| 20260507031651 | 50 | 4 | 3.0 | 5.0 | 0.00 | 0.30 | 0.30 | 72 | 1015.8 |
| 20260507031147 | 50 | 356 | 3.0 | 4.0 | 0.00 | 0.30 | 0.30 | 72 | 1015.8 |
| 20260507030644 | 50 | 13 | 3.0 | 5.0 | 0.00 | 0.30 | 0.30 | 72 | 1015.8 |
| 20260507030142 | 50 | 2 | 3.0 | 6.0 | 0.00 | 0.30 | 0.30 | 72 | 1015.6 |
| 20260507025639 | 50 | 22 | 2.0 | 5.0 | 0.00 | 0.30 | 0.30 | 73 | 1015.9 |
| 20260507025136 | 50 | 16 | 4.0 | 5.0 | 0.00 | 0.30 | 0.30 | 73 | 1015.7 |
| 20260507024634 | 50 | 347 | 3.0 | 5.0 | 0.00 | 0.30 | 0.30 | 73 | 1015.8 |
| 20260507024131 | 50 | 9 | 4.0 | 5.0 | 0.00 | 0.30 | 0.30 | 72 | 1015.9 |
| 20260507023626 | 50 | 2 | 2.0 | 4.0 | 0.00 | 0.30 | 0.30 | 73 | 1015.6 |
| 20260507023124 | 50 | 3 | 4.0 | 5.0 | 0.00 | 0.30 | 0.30 | 72 | 1015.7 |
| 20260507022620 | 50 | 16 | 4.0 | 6.0 | 0.00 | 0.30 | 0.30 | 73 | 1015.7 |
| 20260507022116 | 50 | 342 | 2.0 | 4.0 | 0.00 | 0.30 | 0.30 | 73 | 1015.6 |
| 20260507021612 | 50 | 350 | 3.0 | 5.0 | 0.00 | 0.30 | 0.30 | 73 | 1015.7 |
| 20260507021108 | 50 | 8 | 4.0 | 5.0 | 0.00 | 0.30 | 0.30 | 72 | 1015.6 |
| 20260507020607 | 51 | 359 | 4.0 | 5.0 | 0.00 | 0.30 | 0.30 | 72 | 1015.4 |
| 20260507015601 | 51 | 11 | 4.0 | 6.0 | 0.00 | 0.30 | 0.30 | 71 | 1015.6 |
| 20260507015058 | 51 | 4 | 5.0 | 5.0 | 0.00 | 0.30 | 0.30 | 71 | 1015.7 |
| 20260507014555 | 51 | 22 | 3.0 | 4.0 | 0.00 | 0.30 | 0.30 | 70 | 1015.5 |
| 20260507014050 | 52 | 15 | 5.0 | 5.0 | 0.00 | 0.30 | 0.30 | 70 | 1015.3 |
| 20260507013547 | 52 | 351 | 2.0 | 4.0 | 0.00 | 0.30 | 0.30 | 69 | 1015.2 |
| 20260507013045 | 52 | 11 | 4.0 | 4.0 | 0.00 | 0.30 | 0.30 | 69 | 1015.3 |
| 20260507012542 | 52 | 7 | 3.0 | 4.0 | 0.00 | 0.30 | 0.30 | 68 | 1015.1 |
| 20260507012038 | 52 | 2 | 3.0 | 4.0 | 0.00 | 0.30 | 0.30 | 68 | 1015.1 |
| 20260507011536 | 52 | 21 | 4.0 | 4.0 | 0.00 | 0.30 | 0.30 | 68 | 1015.1 |
| 20260507011031 | 53 | 23 | 4.0 | 4.0 | 0.00 | 0.30 | 0.30 | 67 | 1015.1 |
| 20260507010526 | 53 | 18 | 4.0 | 5.0 | 0.00 | 0.30 | 0.30 | 67 | 1014.9 |
| 20260507010023 | 53 | 2 | 3.0 | 4.0 | 0.00 | 0.30 | 0.30 | 67 | 1015.0 |
| 20260507005520 | 54 | 9 | 4.0 | 4.0 | 0.00 | 0.30 | 0.30 | 66 | 1015.0 |
| 20260507005017 | 54 | 4 | 4.0 | 5.0 | 0.00 | 0.30 | 0.30 | 65 | 1015.1 |
| 20260507004514 | 55 | 1 | 3.0 | 4.0 | 0.00 | 0.30 | 0.30 | 63 | 1014.9 |
| 20260507004011 | 55 | 344 | 2.0 | 3.0 | 0.00 | 0.30 | 0.30 | 62 | 1015.0 |
| 20260507003506 | 56 | 0 | 2.0 | 5.0 | 0.00 | 0.30 | 0.30 | 64 | 1015.2 |
| 20260507003001 | 56 | 336 | 2.0 | 4.0 | 0.00 | 0.30 | 0.30 | 60 | 1015.0 |
| 20260507002458 | 57 | 22 | 1.0 | 3.0 | 0.00 | 0.30 | 0.30 | 56 | 1014.7 |
| 20260507001955 | 57 | 2 | 4.0 | 4.0 | 0.00 | 0.30 | 0.30 | 58 | 1014.9 |
| 20260507001451 | 57 | 31 | 3.0 | 4.0 | 0.00 | 0.30 | 0.30 | 52 | 1014.6 |
| 20260507000949 | 57 | 283 | 3.0 | 3.0 | 0.00 | 0.30 | 0.30 | 54 | 1014.8 |
| 20260507000444 | 58 | 26 | 3.0 | 5.0 | 0.00 | 0.30 | 0.30 | 51 | 1014.8 |
| 20260506235940 | 58 | 4 | 3.0 | 5.0 | 0.00 | 0.30 | 0.30 | 52 | 1014.6 |
| 20260506235438 | 58 | 0 | 5.0 | 10.0 | 0.00 | 0.30 | 0.30 | 51 | 1014.7 |
| 20260506234933 | 58 | 16 | 5.0 | 9.0 | 0.00 | 0.30 | 0.30 | 50 | 1014.5 |
| 20260506234431 | 58 | 11 | 6.0 | 6.0 | 0.00 | 0.30 | 0.30 | 50 | 1014.3 |
| 20260506233928 | 59 | 353 | 4.0 | 5.0 | 0.00 | 0.30 | 0.30 | 49 | 1014.5 |
| 20260506233425 | 59 | 309 | 2.0 | 4.0 | 0.00 | 0.30 | 0.30 | 50 | 1014.4 |
| 20260506232921 | 59 | 31 | 6.0 | 6.0 | 0.00 | 0.30 | 0.30 | 47 | 1014.5 |
| 20260506232418 | 59 | 1 | 4.0 | 6.0 | 0.00 | 0.30 | 0.30 | 48 | 1014.5 |
| 20260506231914 | 59 | 308 | 2.0 | 5.0 | 0.00 | 0.30 | 0.30 | 47 | 1014.2 |
| 20260506231411 | 60 | 347 | 3.0 | 7.0 | 0.00 | 0.30 | 0.30 | 47 | 1014.1 |
| 20260506230908 | 60 | 8 | 5.0 | 7.0 | 0.00 | 0.30 | 0.30 | 46 | 1014.0 |
| 20260506230405 | 60 | 353 | 6.0 | 8.0 | 0.00 | 0.30 | 0.30 | 47 | 1014.0 |
| 20260506225901 | 60 | 10 | 8.0 | 10.0 | 0.00 | 0.30 | 0.30 | 45 | 1013.9 |
| 20260506225358 | 60 | 7 | 9.0 | 14.0 | 0.00 | 0.30 | 0.30 | 44 | 1014.0 |
| 20260506224855 | 59 | 35 | 3.0 | 6.0 | 0.00 | 0.30 | 0.30 | 48 | 1014.2 |
| 20260506224353 | 60 | 2 | 5.0 | 6.0 | 0.00 | 0.30 | 0.30 | 48 | 1014.1 |
| 20260506223849 | 59 | 287 | 2.0 | 6.0 | 0.00 | 0.30 | 0.30 | 48 | 1014.2 |
| 20260506223344 | 59 | 9 | 2.0 | 5.0 | 0.00 | 0.30 | 0.30 | 46 | 1014.3 |
| 20260506222842 | 59 | 12 | 3.0 | 8.0 | 0.00 | 0.30 | 0.30 | 45 | 1014.2 |
| 20260506222337 | 59 | 7 | 4.0 | 9.0 | 0.00 | 0.30 | 0.30 | 46 | 1014.4 |
| 20260506221835 | 59 | 25 | 6.0 | 6.0 | 0.00 | 0.30 | 0.30 | 46 | 1014.4 |
| 20260506221332 | 59 | 5 | 4.0 | 6.0 | 0.00 | 0.30 | 0.30 | 46 | 1014.6 |
| 20260506220830 | 59 | 315 | 3.0 | 5.0 | 0.00 | 0.30 | 0.30 | 46 | 1014.5 |
| 20260506220325 | 59 | 340 | 2.0 | 6.0 | 0.00 | 0.30 | 0.30 | 47 | 1014.6 |
| 20260506215822 | 59 | 295 | 2.0 | 6.0 | 0.00 | 0.30 | 0.30 | 45 | 1014.7 |
| 20260506215318 | 59 | 23 | 2.0 | 6.0 | 0.00 | 0.30 | 0.30 | 46 | 1014.6 |
| 20260506214814 | 60 | 44 | 7.0 | 8.0 | 0.00 | 0.30 | 0.30 | 47 | 1014.6 |
| 20260506214311 | 60 | 257 | 2.0 | 6.0 | 0.00 | 0.30 | 0.30 | 47 | 1014.4 |
| 20260506213809 | 59 | 12 | 5.0 | 9.0 | 0.00 | 0.30 | 0.30 | 46 | 1014.5 |
| 20260506213306 | 60 | 21 | 4.0 | 7.0 | 0.00 | 0.30 | 0.30 | 45 | 1014.5 |
| 20260506212804 | 60 | 20 | 2.0 | 6.0 | 0.00 | 0.30 | 0.30 | 46 | 1014.4 |
| 20260506212259 | 60 | 288 | 2.0 | 7.0 | 0.00 | 0.30 | 0.30 | 45 | 1014.4 |
| 20260506211754 | 60 | 305 | 2.0 | 5.0 | 0.00 | 0.30 | 0.30 | 43 | 1014.4 |
| 20260506211251 | 60 | 267 | 7.0 | 8.0 | 0.00 | 0.30 | 0.30 | 43 | 1014.2 |
| 20260506210748 | 60 | 9 | 3.0 | 7.0 | 0.00 | 0.30 | 0.30 | 45 | 1014.1 |
| 20260506210244 | 60 | 358 | 8.0 | 10.0 | 0.00 | 0.30 | 0.30 | 44 | 1014.0 |
| 20260506205742 | 60 | 15 | 4.0 | 9.0 | 0.00 | 0.30 | 0.30 | 44 | 1013.9 |
| 20260506205237 | 61 | 48 | 3.0 | 9.0 | 0.00 | 0.30 | 0.30 | 44 | 1014.0 |
| 20260506204734 | 60 | 41 | 7.0 | 8.0 | 0.00 | 0.30 | 0.30 | 45 | 1014.0 |
| 20260506204232 | 60 | 36 | 0.0 | 12.0 | 0.00 | 0.30 | 0.30 | 45 | 1013.9 |
| 20260506203730 | 60 | 299 | 3.0 | 9.0 | 0.00 | 0.30 | 0.30 | 45 | 1014.1 |
| 20260506203226 | 60 | 8 | 12.0 | 13.0 | 0.00 | 0.30 | 0.30 | 44 | 1013.9 |
| 20260506202724 | 60 | 27 | 7.0 | 9.0 | 0.00 | 0.30 | 0.30 | 45 | 1014.2 |
| 20260506202220 | 60 | 9 | 8.0 | 10.0 | 0.00 | 0.30 | 0.30 | 45 | 1014.2 |
| 20260506201717 | 60 | 339 | 4.0 | 6.0 | 0.00 | 0.30 | 0.30 | 44 | 1014.2 |
| 20260506201214 | 60 | 33 | 3.0 | 10.0 | 0.00 | 0.30 | 0.30 | 43 | 1014.0 |
| 20260506200711 | 60 | 21 | 5.0 | 9.0 | 0.00 | 0.30 | 0.30 | 43 | 1014.1 |
| 20260506200208 | 60 | 15 | 7.0 | 12.0 | 0.00 | 0.30 | 0.30 | 42 | 1014.1 |
| 20260506195705 | 60 | 8 | 6.0 | 11.0 | 0.00 | 0.30 | 0.30 | 43 | 1014.2 |
| 20260506195201 | 60 | 18 | 4.0 | 11.0 | 0.00 | 0.30 | 0.30 | 43 | 1014.0 |
| 20260506194658 | 60 | 327 | 4.0 | 12.0 | 0.00 | 0.30 | 0.30 | 42 | 1014.0 |
| 20260506194154 | 61 | 347 | 4.0 | 7.0 | 0.00 | 0.30 | 0.30 | 43 | 1014.0 |
| 20260506193652 | 60 | 315 | 2.0 | 11.0 | 0.00 | 0.30 | 0.30 | 45 | 1014.0 |
| 20260506193149 | 60 | 359 | 8.0 | 13.0 | 0.00 | 0.30 | 0.30 | 45 | 1013.9 |
| 20260506192646 | 61 | 350 | 6.0 | 8.0 | 0.00 | 0.30 | 0.30 | 44 | 1013.9 |
| 20260506192142 | 61 | 73 | 2.0 | 11.0 | 0.00 | 0.30 | 0.30 | 45 | 1013.7 |
| 20260506191639 | 61 | 328 | 4.0 | 5.0 | 0.00 | 0.30 | 0.30 | 45 | 1013.4 |
| 20260506191135 | 61 | 7 | 8.0 | 10.0 | 0.00 | 0.30 | 0.30 | 44 | 1013.7 |
| 20260506190632 | 61 | 28 | 5.0 | 10.0 | 0.00 | 0.30 | 0.30 | 44 | 1013.7 |
| 20260506190129 | 61 | 274 | 5.0 | 9.0 | 0.00 | 0.30 | 0.30 | 44 | 1013.6 |
| 20260506185626 | 62 | 292 | 3.0 | 9.0 | 0.00 | 0.30 | 0.30 | 44 | 1013.5 |
| 20260506185122 | 62 | 0 | 9.0 | 12.0 | 0.00 | 0.30 | 0.30 | 43 | 1013.4 |
| 20260506184620 | 62 | 9 | 9.0 | 9.0 | 0.00 | 0.30 | 0.30 | 45 | 1013.6 |
| 20260506184117 | 61 | 38 | 3.0 | 11.0 | 0.00 | 0.30 | 0.30 | 44 | 1013.6 |
| 20260506183614 | 62 | 277 | 8.0 | 11.0 | 0.00 | 0.30 | 0.30 | 43 | 1013.4 |
| 20260506183109 | 61 | 34 | 6.0 | 7.0 | 0.00 | 0.30 | 0.30 | 45 | 1013.4 |
| 20260506182608 | 61 | 28 | 7.0 | 12.0 | 0.00 | 0.30 | 0.30 | 43 | 1013.4 |
| 20260506182104 | 61 | 6 | 6.0 | 14.0 | 0.00 | 0.30 | 0.30 | 41 | 1013.5 |
| 20260506181602 | 61 | 317 | 0.0 | 14.0 | 0.00 | 0.30 | 0.30 | 44 | 1013.5 |
| 20260506181059 | 62 | 334 | 4.0 | 10.0 | 0.00 | 0.30 | 0.30 | 43 | 1013.5 |
| 20260506180555 | 61 | 34 | 4.0 | 8.0 | 0.00 | 0.30 | 0.30 | 45 | 1013.6 |
| 20260506180052 | 61 | 347 | 2.0 | 8.0 | 0.00 | 0.30 | 0.30 | 46 | 1013.8 |
| 20260506175548 | 60 | 44 | 2.0 | 9.0 | 0.00 | 0.30 | 0.30 | 47 | 1014.0 |
| 20260506175044 | 60 | 357 | 9.0 | 11.0 | 0.00 | 0.30 | 0.30 | 47 | 1013.9 |
| 20260506174543 | 59 | 355 | 2.0 | 7.0 | 0.00 | 0.30 | 0.30 | 47 | 1013.6 |
| 20260506174039 | 59 | 32 | 12.0 | 13.0 | 0.00 | 0.30 | 0.30 | 46 | 1014.0 |
| 20260506173537 | 59 | 42 | 2.0 | 9.0 | 0.00 | 0.30 | 0.30 | 45 | 1014.1 |
| 20260506173034 | 59 | 12 | 9.0 | 14.0 | 0.00 | 0.30 | 0.30 | 44 | 1014.0 |
| 20260506172531 | 59 | 342 | 3.0 | 9.0 | 0.00 | 0.30 | 0.30 | 46 | 1014.1 |
| 20260506172027 | 59 | 309 | 2.0 | 14.0 | 0.00 | 0.30 | 0.30 | 44 | 1014.0 |
| 20260506171525 | 59 | 11 | 3.0 | 9.0 | 0.00 | 0.30 | 0.30 | 46 | 1014.2 |
| 20260506171022 | 58 | 354 | 5.0 | 6.0 | 0.00 | 0.30 | 0.30 | 48 | 1014.1 |
| 20260506170520 | 58 | 25 | 8.0 | 10.0 | 0.00 | 0.30 | 0.30 | 47 | 1014.3 |
| 20260506170017 | 58 | 17 | 5.0 | 9.0 | 0.00 | 0.30 | 0.30 | 48 | 1014.2 |
| 20260506165516 | 58 | 5 | 4.0 | 13.0 | 0.00 | 0.30 | 0.30 | 47 | 1014.2 |
| 20260506165011 | 59 | 17 | 4.0 | 9.0 | 0.00 | 0.30 | 0.30 | 47 | 1014.3 |
| 20260506164508 | 58 | 356 | 2.0 | 3.0 | 0.00 | 0.30 | 0.30 | 48 | 1014.3 |
| 20260506164006 | 58 | 1 | 4.0 | 15.0 | 0.00 | 0.30 | 0.30 | 47 | 1014.4 |
| 20260506163501 | 57 | 330 | 2.0 | 11.0 | 0.00 | 0.30 | 0.30 | 48 | 1014.3 |
| 20260506162955 | 57 | 24 | 8.0 | 10.0 | 0.00 | 0.30 | 0.30 | 47 | 1014.2 |
| 20260506162454 | 57 | 9 | 13.0 | 14.0 | 0.00 | 0.30 | 0.30 | 52 | 1014.1 |
| 20260506161951 | 57 | 345 | 4.0 | 11.0 | 0.00 | 0.30 | 0.30 | 49 | 1014.2 |
| 20260506161449 | 56 | 12 | 6.0 | 8.0 | 0.00 | 0.30 | 0.30 | 52 | 1014.3 |
| 20260506160946 | 56 | 23 | 5.0 | 12.0 | 0.00 | 0.30 | 0.30 | 51 | 1014.4 |
| 20260506160443 | 56 | 185 | 2.0 | 8.0 | 0.00 | 0.30 | 0.30 | 56 | 1014.3 |
| 20260506155940 | 55 | 22 | 8.0 | 14.0 | 0.00 | 0.30 | 0.30 | 54 | 1014.2 |
| 20260506155438 | 55 | 20 | 7.0 | 16.0 | 0.00 | 0.30 | 0.30 | 54 | 1014.0 |
| 20260506153605 | 55 | 21 | 9.0 | 10.0 | 0.00 | 0.30 | 0.30 | 57 | 1014.0 |
| 20260506153102 | 55 | 316 | 0.0 | 6.0 | 0.00 | 0.30 | 0.30 | 58 | 1013.8 |
| 20260506152559 | 54 | 28 | 7.0 | 9.0 | 0.00 | 0.30 | 0.30 | 58 | 1014.1 |
| 20260506152057 | 54 | 359 | 7.0 | 12.0 | 0.00 | 0.30 | 0.30 | 58 | 1014.5 |
| 20260506151555 | 54 | 347 | 8.0 | 12.0 | 0.00 | 0.30 | 0.30 | 58 | 1014.6 |
| 20260506151052 | 53 | 313 | 2.0 | 8.0 | 0.00 | 0.30 | 0.30 | 60 | 1014.2 |
| 20260506150548 | 53 | 6 | 7.0 | 14.0 | 0.00 | 0.30 | 0.30 | 60 | 1014.0 |
| 20260506150045 | 53 | 32 | 7.0 | 9.0 | 0.00 | 0.30 | 0.30 | 64 | 1013.5 |
| 20260506145542 | 53 | 355 | 4.0 | 12.0 | 0.00 | 0.30 | 0.30 | 66 | 1013.9 |
| 20260506145039 | 53 | 22 | 4.0 | 5.0 | 0.00 | 0.30 | 0.30 | 67 | 1013.6 |
| 20260506144536 | 52 | 27 | 3.0 | 6.0 | 0.00 | 0.30 | 0.30 | 66 | 1013.5 |
| 20260506144033 | 52 | 19 | 2.0 | 3.0 | 0.00 | 0.30 | 0.30 | 68 | 1013.2 |
| 20260506143531 | 52 | 6 | 7.0 | 14.0 | 0.00 | 0.30 | 0.30 | 68 | 1013.1 |
| 20260506143029 | 51 | 294 | 4.0 | 9.0 | 0.00 | 0.30 | 0.30 | 68 | 1013.1 |
| 20260506142526 | 51 | 351 | 0.0 | 6.0 | 0.00 | 0.30 | 0.30 | 71 | 1013.0 |
| 20260506142024 | 51 | 32 | 5.0 | 8.0 | 0.00 | 0.30 | 0.30 | 71 | 1013.2 |
| 20260506141522 | 51 | 19 | 13.0 | 15.0 | 0.00 | 0.30 | 0.30 | 70 | 1013.1 |
| 20260506141020 | 51 | 27 | 8.0 | 12.0 | 0.00 | 0.30 | 0.30 | 71 | 1013.3 |
| 20260506140517 | 50 | 359 | 7.0 | 12.0 | 0.02 | 0.30 | 0.30 | 73 | 1013.2 |
| 20260506140014 | 50 | 331 | 5.0 | 7.0 | 0.02 | 0.30 | 0.30 | 75 | 1013.1 |
| 20260506135511 | 50 | 319 | 2.0 | 4.0 | 0.00 | 0.30 | 0.30 | 75 | 1013.0 |
| 20260506135007 | 50 | 26 | 7.0 | 11.0 | 0.00 | 0.30 | 0.30 | 73 | 1013.2 |
| 20260506134504 | 50 | 322 | 3.0 | 12.0 | 0.00 | 0.30 | 0.30 | 75 | 1013.1 |
| 20260506134000 | 49 | 36 | 6.0 | 6.0 | 0.00 | 0.30 | 0.30 | 77 | 1013.0 |
| 20260506133457 | 49 | 16 | 12.0 | 14.0 | 0.00 | 0.30 | 0.30 | 76 | 1013.0 |
| 20260506132954 | 49 | 19 | 4.0 | 10.0 | 0.00 | 0.30 | 0.30 | 77 | 1013.0 |
| 20260506132451 | 49 | 19 | 11.0 | 11.0 | 0.00 | 0.30 | 0.30 | 78 | 1012.7 |
| 20260506131948 | 49 | 296 | 2.0 | 5.0 | 0.00 | 0.30 | 0.30 | 79 | 1012.9 |
| 20260506131444 | 48 | 12 | 7.0 | 9.0 | 0.00 | 0.30 | 0.30 | 79 | 1012.8 |
| 20260506130942 | 48 | 28 | 6.0 | 9.0 | 0.00 | 0.30 | 0.30 | 79 | 1012.8 |
| 20260506130438 | 48 | 350 | 2.0 | 5.0 | 0.00 | 0.30 | 0.30 | 80 | 1012.3 |
| 20260506125936 | 48 | 347 | 4.0 | 7.0 | 0.00 | 0.30 | 0.30 | 81 | 1012.5 |
| 20260506125434 | 48 | 21 | 8.0 | 10.0 | 0.00 | 0.30 | 0.30 | 81 | 1012.6 |
| 20260506124932 | 48 | 328 | 3.0 | 5.0 | 0.00 | 0.30 | 0.30 | 81 | 1012.8 |
| 20260506124429 | 48 | 354 | 2.0 | 8.0 | 0.00 | 0.30 | 0.30 | 81 | 1012.6 |
| 20260506123927 | 48 | 9 | 4.0 | 4.0 | 0.00 | 0.30 | 0.30 | 83 | 1012.6 |
| 20260506123425 | 47 | 347 | 3.0 | 9.0 | 0.00 | 0.30 | 0.30 | 82 | 1012.6 |
| 20260506122922 | 48 | 353 | 4.0 | 11.0 | 0.00 | 0.30 | 0.30 | 82 | 1012.5 |
| 20260506122419 | 48 | 7 | 8.0 | 9.0 | 0.00 | 0.30 | 0.30 | 83 | 1012.7 |
| 20260506121917 | 47 | 12 | 7.0 | 9.0 | 0.00 | 0.30 | 0.30 | 84 | 1012.5 |
| 20260506121414 | 47 | 17 | 5.0 | 10.0 | 0.00 | 0.30 | 0.30 | 84 | 1012.2 |
| 20260506120911 | 47 | 29 | 8.0 | 8.0 | 0.00 | 0.30 | 0.30 | 84 | 1012.4 |
| 20260506120408 | 47 | 336 | 2.0 | 6.0 | 0.00 | 0.30 | 0.30 | 85 | 1012.0 |
| 20260506115906 | 47 | 1 | 9.0 | 9.0 | 0.00 | 0.30 | 0.30 | 85 | 1011.8 |
| 20260506115404 | 47 | 17 | 4.0 | 6.0 | 0.00 | 0.30 | 0.30 | 85 | 1011.8 |
| 20260506114902 | 47 | 355 | 4.0 | 4.0 | 0.00 | 0.30 | 0.30 | 87 | 1011.6 |